Location: Unspecified
(0.0000°N, 0.0000°E)
Time: 21:06:12
(UTC+00:00)

Courier 1B - All Passes

Search period start: 23 April 2014 00:00
Search period end: 03 May 2014 00:00
Orbit: 963 x 1209 km, 28.3° (Epoch: 22 April)

Date Brightness Start Highest point End Pass type
(mag) Time Alt. Az. Time Alt. Az. Time Alt. Az.
23 Apr - 04:52:30 10° S 04:55:50 13° SSE 04:59:13 10° SE visible
23 Apr - 06:43:48 10° SW 06:50:56 40° SSE 06:58:11 10° E daylight
23 Apr - 08:37:40 10° WSW 08:45:26 66° NNW 08:53:11 10° NE daylight
23 Apr - 10:34:29 10° WNW 10:40:11 22° NNW 10:45:48 10° NNE daylight
23 Apr - 18:18:43 10° NNW 18:24:26 30° NNE 18:29:59 10° E visible
23 Apr - 20:12:02 10° WNW 20:18:32 74° SSW 20:25:00 10° SE visible
23 Apr - 22:08:10 10° WSW 22:12:47 20° SSW 22:17:29 10° SSE night (unlit)
24 Apr - 05:50:28 10° SSW 05:56:54 30° SSE 06:03:32 10° E daylight
24 Apr - 07:43:40 10° WSW 07:51:27 88° NNW 07:59:21 10° ENE daylight
24 Apr - 09:39:30 10° W 09:46:05 29° NNW 09:52:36 10° NNE daylight
24 Apr - 17:25:29 10° NNW 17:30:34 22° NNE 17:35:29 10° ENE daylight
24 Apr - 19:18:15 10° NW 19:24:52 79° NNE 19:31:19 10° ESE visible
24 Apr - 21:13:32 10° W 21:18:57 28° SSW 21:24:24 10° SSE visible
25 Apr - 04:57:21 10° SSW 05:02:51 22° SSE 05:08:32 10° ESE visible
25 Apr - 06:49:53 10° SW 06:57:30 70° SSE 07:05:19 10° ENE daylight
25 Apr - 08:44:53 10° W 08:52:01 39° NNW 08:59:11 10° NE daylight
25 Apr - 10:43:53 10° NW 10:47:15 13° NNW 10:50:35 10° N daylight
25 Apr - 16:32:24 10° NNW 16:36:35 17° NNE 16:40:39 10° ENE daylight
25 Apr - 18:24:35 10° NW 18:31:09 56° NNE 18:37:29 10° ESE visible
25 Apr - 20:19:10 10° W 20:25:11 39° SSW 20:31:10 10° SE visible
25 Apr - 22:18:06 10° SW 22:19:52 11° SSW 22:21:39 10° S night (unlit)
26 Apr - 04:04:32 10° SSW 04:08:46 16° SSE 04:13:06 10° ESE visible
26 Apr - 05:56:19 10° SW 06:03:33 51° SSE 06:11:04 10° ENE daylight
26 Apr - 07:50:33 10° WSW 07:58:00 52° NNW 08:05:36 10° NE daylight
26 Apr - 09:48:06 10° WNW 09:52:59 18° NNW 09:57:52 10° NNE daylight
26 Apr - 15:39:38 10° N 15:42:30 13° NNE 15:45:18 10° NE daylight
26 Apr - 17:31:02 10° NW 17:37:24 40° NNE 17:43:29 10° E daylight
26 Apr - 19:25:00 10° WNW 19:31:29 56° SSW 19:37:48 10° SE visible
26 Apr - 21:22:13 10° WSW 21:25:52 15° SSW 21:29:32 10° S visible
27 Apr - 03:12:28 10° S 03:14:36 11° SSE 03:16:47 10° SE visible
27 Apr - 05:02:56 10° SW 05:09:36 37° SSE 05:16:34 10° E visible
27 Apr - 06:56:28 10° WSW 07:04:01 70° NNW 07:11:50 10° NE daylight
27 Apr - 08:52:54 10° WNW 08:58:48 23° NNW 09:04:44 10° NNE daylight
27 Apr - 16:37:34 10° NNW 16:43:33 29° NNE 16:49:15 10° E daylight
27 Apr - 18:30:59 10° WNW 18:37:47 79° SSW 18:44:18 10° SE visible
27 Apr - 20:27:08 10° WSW 20:31:58 21° SSW 20:36:45 10° SSE visible
28 Apr - 04:09:45 10° SSW 04:15:39 27° SSE 04:21:48 10° E visible
28 Apr - 06:02:37 10° WSW 06:10:05 87° SSE 06:17:54 10° ENE daylight
28 Apr - 07:58:06 10° W 08:04:41 31° NNW 08:11:23 10° NNE daylight
28 Apr - 09:58:43 10° NNW 10:00:13 11° NNW 10:01:43 10° N daylight
28 Apr - 15:44:14 10° NNW 15:49:36 22° NNE 15:54:44 10° ENE daylight
28 Apr - 17:37:07 10° NW 17:44:04 75° NNE 17:50:38 10° ESE daylight
28 Apr - 19:32:27 10° W 19:38:09 30° SSW 19:43:44 10° SSE visible
29 Apr - 03:16:48 10° SSW 03:21:40 20° SSE 03:26:42 10° ESE visible
29 Apr - 05:08:59 10° SW 05:16:11 65° SSE 05:23:47 10° ENE visible
29 Apr - 07:03:39 10° W 07:10:38 41° NNW 07:17:52 10° NE daylight
29 Apr - 09:02:06 10° NW 09:05:52 14° NNW 09:09:39 10° N daylight
29 Apr - 14:51:02 10° NNW 14:55:32 17° NNE 14:59:53 10° ENE daylight
29 Apr - 16:43:23 10° NW 16:50:18 54° NNE 16:56:48 10° ESE daylight
29 Apr - 18:38:00 10° W 18:44:24 42° SSW 18:50:32 10° SE visible
29 Apr - 20:36:42 10° SW 20:38:59 12° SSW 20:41:15 10° S visible
30 Apr - 02:24:17 10° S 02:27:37 14° SSE 02:31:03 10° SE visible
30 Apr - 04:15:32 10° SW 04:22:18 47° SSE 04:29:28 10° ENE visible
30 Apr - 06:09:28 10° WSW 06:16:39 54° NNW 06:24:11 10° NE daylight
30 Apr - 08:06:36 10° WNW 08:11:36 18° NNW 08:16:41 10° NNE daylight
30 Apr - 13:58:06 10° N 14:01:21 13° NNE 14:04:32 10° NE daylight
30 Apr - 15:49:44 10° NW 15:56:27 39° NNE 16:02:46 10° E daylight
30 Apr - 17:43:46 10° WNW 17:50:39 60° SSW 17:57:11 10° SE daylight
30 Apr - 19:40:55 10° WSW 19:45:00 17° SSW 19:49:02 10° SSE visible
01 May - 03:22:17 10° SSW 03:28:26 33° SSE 03:34:55 10° E visible
01 May - 05:15:32 10° WSW 05:22:43 74° NNW 05:30:21 10° NE visible
01 May - 07:11:36 10° WNW 07:17:26 24° NNW 07:23:26 10° NNE daylight
01 May - 13:06:22 10° NNE 13:07:02 10° NNE 13:07:43 10° NNE daylight
01 May - 14:56:13 10° NNW 15:02:30 29° NNE 15:08:29 10° E daylight
01 May - 16:49:42 10° WNW 16:56:54 84° SSW 17:03:40 10° ESE daylight
01 May - 18:45:49 10° W 18:51:07 24° SSW 18:56:15 10° SSE visible
02 May - 02:29:14 10° SSW 02:34:33 24° SSE 02:40:06 10° E visible
02 May - 04:21:49 10° WSW 04:28:52 82° SSE 04:36:23 10° ENE visible
02 May - 06:16:59 10° W 06:23:21 31° NNW 06:29:59 10° NNE daylight
02 May - 08:16:54 10° NNW 08:18:50 11° NNW 08:20:46 10° N daylight
02 May - 14:02:48 10° NNW 14:08:28 22° NNE 14:13:54 10° ENE daylight
02 May - 15:55:46 10° NW 16:03:06 71° NNE 16:09:59 10° ESE daylight
02 May - 17:51:05 10° W 17:57:17 33° SSW 18:03:12 10° SSE daylight
